Temp
3 4 3 4 4 4 3 4 5 5 5 6 6 5 5 5 6 6 6 6 6 6 6 6 6 6 6 6 6 6 6 7 6
4 3 4 3 3 3 3 3 4 5 5 5 6 5 5 5 5 5 5 5 5 5 5 5 5 5 5 6 6 6 6 6 6
4 3 2 3 3 3 3 3 3 4 4 4 5 5 5 5 5 5 5 5 5 5 5 5 5 5 5 5 5 5 6 6 6
4 4 2 2 2 2 2 2 3 4 4 4 4 4 4 4 4 4 5 4 4 5 4 4 4 4 4 5 5 5 5 5 5
3 3 2 2 2 2 2 2 3 2 3 4 4 4 3 3 4 4 4 4 4 4 4 4 4 4 4 4 4 5 5 5 5
2 2 2 2 2 2 2 3 3 2 2 3 3 4 3 3 3 4 4 4 4 4 4 4 4 4 3 4 4 4 4 4 4
1 1 1 2 2 2 2 3 3 2 2 3 4 4 3 3 3 4 4 4 4 4 3 3 3 3 3 3 3 2 4 4 4
2 2 2 2 2 2 2 3 3 3 2 3 3 4 4 3 3 3 4 4 4 4 4 4 3 3 2 2 3 3 3 3 3
2 2 2 2 3 3 3 3 3 3 3 3 3 3 3 3 3 3 3 3 3 4 4 3 2 2 3 2 3 3 2 2 3
2 2 2 2 2 3 3 3 4 3 3 3 3 3 3 3 3 3 3 3 3 3 3 3 3 3 3 3 3 3 3 3 3
2 2 2 2 3 3 2 3 3 3 3 2 3 3 3 3 3 3 3 2 3 3 3 3 3 3 2 2 3 3 3 3 3
2 2 2 2 2 2 2 2 3 3 2 2 2 3 3 3 3 2 2 3 3 3 4 3 3 2 2 2 2 2 3 3 3
2 2 1 1 1 1 2 2 2 2 3 2 1 2 3 3 3 2 3 3 3 3 3 3 3 2 2 3 2 3 3 2 3
2 1 1 1 1 1 1 1 1 2 2 3 2 2 2 3 3 3 3 3 3 3 3 3 3 3 3 2 2 2 2 2 2
2 1 0 1 0 1 1 1 1 2 2 2 2 2 2 2 3 3 3 3 3 3 3 3 3 3 3 3 3 2 2 1 2
2 1 0 0 0 0 0 1 1 1 2 2 2 2 2 2 3 3 3 3 3 3 3 3 3 3 3 3 3 3 3 2 2
1 1 -0 -0 -0 -0 0 0 0 0 1 1 2 2 2 2 2 3 3 3 3 3 3 3 3 3 3 3 3 3 3 3 3
1 0 0 -0 -0 -0 0 0 0 0 1 1 1 2 2 2 2 3 3 3 3 2 3 3 3 2 2 2 2 2 3 2 3
1 1 0 -0 -0 -0 0 0 0 0 0 0 1 0 1 2 2 2 2 2 2 2 2 2 2 2 2 1 2 2 2 2 2
-1 0 0 0 0 0 0 -0 0 0 -0 0 0 0 0 0 1 1 1 1 1 1 1 2 1 1 1 1 1 1 1 1 2
Height
3172 3173 3174 3174 3174 3175 3176 3176 3177 3178 3179 3181 3182 3184 3185 3185 3185 3186 3186 3187 3187 3187 3187 3187 3188 3188 3188 3188 3188 3188 3188 3187 3187
3172 3173 3173 3173 3175 3175 3176 3176 3176 3177 3178 3180 3182 3183 3185 3186 3186 3186 3187 3187 3187 3187 3188 3188 3188 3188 3188 3188 3188 3189 3188 3188 3187
3172 3173 3173 3173 3174 3176 3177 3177 3178 3178 3179 3180 3181 3182 3184 3186 3186 3187 3187 3187 3187 3188 3188 3188 3188 3189 3189 3189 3188 3188 3188 3188 3188
3174 3173 3173 3173 3174 3176 3176 3179 3179 3180 3180 3179 3180 3182 3183 3185 3186 3186 3186 3187 3188 3187 3188 3188 3188 3188 3188 3188 3188 3188 3188 3188 3188
3174 3173 3173 3175 3174 3175 3176 3178 3180 3179 3179 3179 3179 3181 3182 3184 3186 3187 3187 3186 3187 3188 3187 3186 3187 3186 3187 3187 3187 3187 3187 3188 3188
3174 3174 3175 3174 3175 3175 3175 3178 3178 3178 3178 3177 3178 3179 3181 3183 3185 3186 3186 3186 3186 3186 3185 3186 3186 3185 3185 3184 3183 3186 3187 3187 3188
3173 3174 3174 3174 3175 3174 3175 3176 3178 3178 3179 3179 3178 3179 3180 3182 3183 3184 3185 3185 3186 3186 3184 3185 3186 3184 3185 3182 3180 3183 3186 3186 3188
3172 3172 3174 3174 3174 3174 3174 3174 3176 3178 3179 3180 3178 3177 3178 3180 3182 3182 3184 3185 3185 3182 3184 3184 3184 3183 3183 3181 3184 3185 3184 3186 3187
3170 3170 3171 3172 3172 3171 3171 3171 3172 3174 3175 3176 3176 3175 3174 3177 3179 3180 3182 3184 3184 3183 3183 3181 3182 3183 3183 3183 3184 3184 3185 3186 3187
3166 3166 3168 3169 3168 3168 3168 3169 3169 3170 3172 3173 3173 3173 3173 3174 3176 3177 3179 3181 3182 3182 3182 3183 3182 3183 3184 3185 3184 3184 3185 3185 3184
3161 3163 3163 3164 3165 3165 3165 3167 3168 3167 3168 3169 3170 3171 3171 3172 3173 3174 3175 3177 3178 3179 3180 3180 3181 3181 3183 3182 3182 3183 3182 3182 3182
3157 3158 3159 3160 3161 3162 3162 3163 3164 3165 3165 3166 3167 3168 3169 3169 3170 3171 3172 3173 3174 3174 3176 3178 3178 3179 3179 3180 3180 3180 3180 3180 3180
3153 3154 3155 3156 3158 3158 3160 3161 3161 3162 3162 3163 3164 3164 3165 3166 3166 3167 3167 3168 3170 3171 3172 3174 3175 3176 3175 3176 3176 3176 3176 3177 3177
3149 3150 3152 3153 3154 3155 3156 3158 3158 3159 3159 3160 3161 3161 3161 3162 3163 3163 3164 3166 3166 3168 3169 3170 3171 3171 3171 3171 3172 3172 3174 3174 3173
3145 3147 3148 3149 3151 3152 3153 3154 3155 3155 3157 3157 3158 3159 3159 3159 3160 3160 3161 3162 3163 3164 3165 3165 3166 3167 3167 3167 3167 3168 3169 3169 3168
3142 3143 3144 3146 3148 3149 3150 3150 3152 3152 3153 3154 3154 3156 3157 3158 3158 3158 3157 3158 3159 3160 3161 3161 3162 3162 3162 3162 3162 3163 3163 3163 3164
3138 3140 3140 3141 3143 3145 3146 3147 3148 3149 3149 3150 3150 3152 3155 3154 3154 3154 3154 3154 3155 3156 3157 3158 3158 3158 3158 3158 3158 3158 3158 3158 3157
3133 3135 3136 3138 3138 3140 3141 3143 3144 3145 3145 3146 3147 3147 3150 3150 3150 3149 3149 3149 3150 3152 3152 3153 3153 3153 3153 3153 3153 3153 3153 3152 3149
3128 3130 3132 3133 3134 3135 3136 3138 3140 3141 3141 3142 3143 3142 3144 3145 3145 3144 3143 3144 3146 3147 3148 3148 3148 3148 3148 3147 3147 3147 3147 3146 3143
3122 3124 3126 3127 3129 3130 3132 3132 3134 3135 3137 3136 3137 3138 3138 3139 3139 3138 3138 3138 3139 3141 3142 3143 3142 3141 3141 3141 3140 3140 3140 3139 3138
Wind_Speed
3 1 3 6 7 7 9 10 11 13 13 13 13 11 9 8 7 6 5 6 6 7 8 7 7 7 7 7 6 6 5 5 5
2 3 4 6 7 8 9 10 12 13 13 12 12 10 8 8 7 7 7 7 8 7 7 7 7 7 6 7 6 6 5 4 4
1 4 5 6 8 7 7 8 9 11 12 13 12 11 11 7 7 8 8 6 6 6 6 6 5 6 6 6 6 5 5 4 4
2 2 4 5 6 8 8 8 8 10 11 13 12 11 11 11 7 6 6 5 4 5 7 6 7 7 7 6 6 6 6 4 4
2 3 10 11 7 3 2 2 13 9 15 14 15 12 9 10 10 5 6 10 11 12 6 6 9 8 6 6 7 7 6 4 2
3 5 7 5 2 3 4 2 1 10 14 13 13 19 7 7 11 11 9 8 7 8 7 10 9 9 10 13 13 10 7 3 1
8 7 7 9 10 11 10 8 6 3 11 10 12 12 13 13 13 11 10 9 9 9 5 5 12 6 6 3 14 16 6 2 4
13 14 14 14 14 14 13 12 10 13 13 10 5 8 13 14 13 12 11 6 5 4 9 12 4 4 2 3 2 5 6 6 6
12 13 13 14 14 14 15 14 12 10 12 12 13 11 12 15 15 14 13 13 8 5 3 5 1 4 4 2 3 4 6 5 6
14 14 14 14 14 15 15 15 14 12 10 12 13 12 13 15 17 17 17 17 17 15 8 7 5 8 8 8 9 7 10 12 11
17 16 15 14 13 14 13 12 12 12 11 12 10 11 12 14 17 19 20 21 21 20 18 15 14 14 13 15 12 12 12 12 11
19 18 17 15 14 13 13 12 12 13 12 12 11 11 10 12 14 18 20 21 22 23 23 21 20 19 17 16 15 15 14 12 13
18 19 18 16 15 14 13 12 13 13 13 13 14 13 13 13 15 17 19 21 23 22 23 23 22 22 21 20 19 18 15 11 15
17 18 19 17 16 15 13 11 13 13 14 12 13 14 14 13 13 15 19 19 20 21 21 20 21 22 23 23 23 21 19 15 20
17 18 19 18 17 16 14 13 13 14 14 14 13 15 14 12 13 14 15 16 17 18 18 18 19 19 21 23 25 25 25 25 26
18 19 20 20 18 17 16 15 14 15 15 14 15 15 15 14 14 15 15 15 15 15 16 17 17 18 18 19 20 21 24 26 28
20 21 22 22 21 20 19 18 17 17 17 16 17 17 16 16 16 16 17 17 16 15 15 15 16 17 18 19 20 20 22 23 25
22 23 24 24 23 22 21 20 19 20 20 20 20 21 20 18 19 20 20 20 19 17 17 18 18 19 20 20 21 21 23 24 27
23 25 25 26 25 25 24 23 22 22 22 23 23 22 22 22 22 22 23 23 22 22 21 22 22 23 23 23 24 24 25 26 30
24 24 26 27 27 26 25 24 24 24 24 25 26 26 26 26 26 27 28 27 26 26 26 26 27 27 27 28 28 29 29 31 32
Wind_Direction
141 279 226 202 188 189 173 181 184 185 185 184 182 177 171 168 164 154 156 144 163 162 160 155 147 140 142 136 132 128 126 125 123
5 279 280 224 214 198 167 162 185 183 186 184 182 176 175 182 181 169 160 166 164 171 172 172 161 157 154 152 148 146 141 133 130
188 269 244 205 204 213 218 163 173 184 184 179 177 176 171 175 179 171 160 166 173 178 176 175 179 179 174 170 159 157 155 149 143
239 222 191 202 219 222 213 200 192 188 178 170 163 169 153 168 157 173 174 182 203 216 203 198 205 200 191 183 180 172 169 165 154
243 132 142 133 131 140 219 249 222 193 186 183 174 175 185 175 180 204 233 231 230 244 219 239 235 209 218 197 186 174 163 155 165
223 185 193 169 208 270 256 280 201 231 209 169 188 196 186 213 218 212 215 214 238 248 251 244 270 248 246 238 204 174 152 140 242
233 228 228 237 252 258 268 261 228 194 188 185 181 188 193 211 218 215 210 211 227 244 191 325 300 246 351 322 191 170 148 126 286
246 238 231 227 231 244 254 251 229 208 198 200 170 202 202 211 215 210 201 196 212 206 290 297 322 32 19 28 76 209 188 198 296
252 254 249 245 240 241 245 249 254 231 220 222 221 218 221 218 216 216 215 213 190 168 207 205 194 342 231 193 261 203 198 209 236
255 257 250 243 241 241 244 245 251 252 245 229 233 229 225 224 224 222 219 218 222 224 213 205 196 233 230 232 257 241 251 264 264
257 259 258 252 243 248 252 255 255 259 257 249 241 232 230 231 230 228 224 223 226 230 232 231 235 236 246 260 256 261 261 269 272
251 253 253 251 252 248 251 255 251 246 245 251 253 249 238 232 232 232 232 231 230 233 240 239 242 243 243 251 254 258 258 265 261
244 246 244 243 246 245 245 249 256 259 253 247 249 251 251 242 234 231 233 233 235 236 238 241 245 250 252 250 252 255 258 255 260
238 239 241 240 240 244 244 244 247 244 245 244 241 243 246 247 245 242 242 239 240 244 246 247 248 250 252 253 253 254 251 240 251
242 235 238 240 239 241 244 241 242 241 239 244 241 242 239 241 241 241 241 240 239 241 245 246 249 253 254 254 256 256 256 257 260
249 237 237 240 238 238 240 241 239 242 241 237 240 242 241 238 239 241 243 244 243 242 244 248 252 254 256 259 260 259 259 260 263
253 245 240 240 240 238 235 235 236 238 241 243 245 246 243 243 246 248 248 250 251 250 250 250 254 257 259 261 262 262 263 264 266
252 250 247 244 242 241 238 237 235 237 239 242 243 247 249 248 246 251 253 255 258 257 258 259 259 260 260 260 261 261 263 264 265
255 251 248 247 245 244 243 241 240 241 242 245 247 249 253 255 255 251 255 257 257 256 255 257 259 260 262 263 263 263 264 264 266
260 254 253 251 250 247 245 245 243 241 243 247 250 252 253 256 259 262 261 260 259 257 261 261 262 263 264 264 266 267 267 267 270